Temperature
-4 -3 -3 -3 -3 -3 -4 -4 -3 -3 -4 -4 -5 -5 -4 -4 -4 -4 -4 -3 -3 -3 -2 -1 -0 1 1 2 3 3 3 4 4 4 4 5 5 5 5 5 5 5 5 5
-4 -3 -3 -4 -4 -4 -4 -4 -5 -4 -4 -5 -5 -5 -5 -5 -5 -5 -4 -4 -4 -3 -3 -2 -1 -0 1 1 2 2 3 3 3 4 4 4 4 4 4 4 4 4 4 4
-5 -4 -4 -5 -5 -5 -5 -6 -6 -6 -6 -6 -6 -6 -6 -6 -6 -6 -5 -5 -5 -4 -3 -3 -2 -1 -0 0 1 2 2 2 2 3 3 3 3 4 4 4 4 4 4 4
-5 -5 -6 -6 -6 -6 -6 -6 -7 -6 -6 -7 -7 -6 -6 -6 -6 -6 -6 -6 -5 -4 -4 -3 -2 -2 -1 -0 0 1 1 2 2 2 2 2 3 3 3 3 3 3 3 3
-6 -6 -6 -6 -6 -7 -7 -7 -7 -7 -7 -7 -7 -6 -6 -6 -6 -6 -6 -6 -5 -5 -4 -4 -3 -2 -2 -1 -0 0 0 1 1 1 2 2 2 2 2 2 2 3 3 3
-7 -7 -7 -7 -7 -7 -6 -7 -7 -8 -8 -8 -8 -7 -7 -7 -7 -7 -7 -6 -6 -5 -5 -4 -4 -3 -2 -2 -1 -1 -0 -0 0 1 1 1 1 2 2 2 2 2 2 2
-8 -8 -8 -8 -7 -7 -7 -7 -8 -8 -8 -9 -9 -8 -8 -8 -8 -7 -7 -7 -6 -6 -5 -5 -4 -4 -3 -3 -2 -2 -1 -1 -0 -0 0 1 1 1 1 1 1 1 1 1
-8 -8 -8 -8 -8 -8 -8 -8 -8 -8 -9 -9 -9 -9 -9 -9 -8 -8 -7 -7 -7 -6 -6 -5 -5 -4 -4 -3 -3 -2 -2 -2 -1 -1 -1 -0 0 0 0 0 0 0 1 1
-9 -8 -8 -8 -8 -8 -8 -9 -9 -9 -9 -9 -9 -9 -9 -9 -8 -8 -8 -8 -7 -7 -6 -6 -5 -5 -5 -4 -4 -3 -3 -2 -2 -1 -1 -1 -1 -0 -0 -0 -0 -0 -0 -0
-9 -9 -8 -8 -8 -8 -9 -9 -9 -9 -9 -9 -10 -10 -9 -9 -9 -8 -8 -8 -8 -7 -7 -6 -6 -5 -5 -5 -4 -4 -3 -3 -2 -2 -2 -2 -2 -1 -1 -1 -1 -1 -1 -1
-10 -9 -9 -8 -8 -9 -9 -9 -9 -9 -10 -10 -10 -10 -10 -9 -9 -9 -8 -8 -8 -8 -7 -7 -7 -6 -6 -5 -5 -4 -4 -4 -3 -3 -3 -3 -2 -2 -2 -2 -2 -2 -2 -2
-10 -9 -9 -9 -9 -9 -9 -10 -10 -10 -10 -10 -10 -10 -10 -9 -9 -9 -9 -8 -8 -8 -8 -7 -7 -7 -6 -6 -5 -5 -5 -4 -4 -4 -4 -3 -3 -3 -3 -3 -2 -2 -2 -2
-9 -9 -9 -9 -9 -10 -10 -10 -10 -10 -10 -10 -10 -10 -10 -10 -9 -9 -9 -9 -8 -8 -8 -8 -8 -7 -7 -6 -6 -5 -5 -5 -5 -5 -4 -4 -4 -4 -3 -3 -3 -3 -3 -3
-9 -9 -9 -9 -10 -10 -10 -10 -10 -10 -10 -10 -10 -10 -10 -10 -9 -9 -9 -9 -9 -9 -8 -8 -8 -8 -7 -7 -7 -6 -6 -5 -5 -5 -5 -5 -5 -4 -4 -4 -4 -4 -3 -3
-9 -10 -10 -10 -10 -10 -10 -10 -10 -10 -10 -10 -10 -10 -10 -10 -10 -10 -9 -9 -9 -9 -9 -9 -8 -8 -8 -8 -7 -7 -6 -6 -6 -6 -5 -5 -5 -5 -5 -5 -5 -5 -4 -4
-10 -10 -10 -10 -11 -11 -11 -11 -11 -11 -11 -11 -11 -11 -11 -10 -10 -10 -10 -10 -10 -9 -9 -9 -9 -8 -8 -8 -7 -7 -7 -7 -7 -7 -6 -6 -6 -6 -6 -6 -6 -5 -5 -5
-10 -10 -10 -11 -11 -11 -11 -11 -11 -11 -11 -11 -11 -11 -11 -11 -10 -10 -10 -10 -10 -10 -10 -9 -9 -9 -8 -8 -8 -8 -7 -7 -7 -7 -7 -7 -7 -7 -6 -6 -6 -6 -6 -6
-10 -10 -11 -11 -11 -11 -11 -11 -11 -11 -11 -11 -11 -11 -11 -11 -11 -11 -11 -10 -10 -10 -10 -10 -9 -9 -9 -9 -8 -8 -8 -8 -8 -7 -7 -7 -7 -7 -7 -7 -7 -7 -7 -6
-10 -10 -11 -11 -11 -11 -11 -11 -12 -12 -12 -12 -12 -12 -12 -12 -12 -11 -11 -11 -11 -10 -10 -10 -10 -10 -9 -9 -9 -9 -9 -8 -8 -8 -8 -8 -8 -8 -8 -8 -7 -7 -7 -7
-10 -11 -11 -11 -11 -11 -11 -12 -12 -12 -12 -12 -12 -12 -12 -12 -12 -12 -11 -11 -11 -11 -11 -11 -10 -10 -10 -10 -9 -9 -9 -9 -9 -8 -8 -8 -8 -8 -8 -8 -8 -8 -8 -7
-11 -11 -11 -11 -11 -11 -12 -12 -12 -12 -12 -12 -12 -12 -12 -12 -12 -12 -12 -11 -11 -11 -11 -11 -11 -11 -10 -10 -10 -10 -10 -9 -9 -9 -9 -9 -9 -9 -8 -8 -8 -8 -8 -8
-11 -11 -11 -12 -12 -12 -12 -12 -12 -12 -12 -12 -12 -12 -12 -12 -12 -12 -12 -12 -12 -12 -12 -11 -11 -11 -11 -11 -10 -10 -10 -10 -10 -9 -9 -9 -9 -9 -9 -9 -9 -8 -8 -8
-12 -12 -12 -12 -12 -12 -12 -12 -12 -12 -12 -12 -13 -12 -13 -13 -13 -12 -12 -12 -12 -12 -12 -12 -12 -11 -11 -11 -11 -10 -10 -10 -10 -10 -10 -10 -9 -9 -9 -9 -9 -9 -9 -9
-12 -12 -12 -12 -12 -12 -12 -12 -13 -13 -13 -13 -13 -13 -13 -13 -13 -13 -13 -13 -12 -12 -12 -12 -12 -12 -11 -11 -11 -11 -11 -10 -10 -10 -10 -10 -10 -10 -10 -10 -10 -9 -9 -9
-12 -12 -12 -13 -13 -13 -13 -13 -13 -13 -13 -13 -13 -13 -13 -13 -13 -13 -13 -13 -12 -12 -12 -12 -12 -12 -12 -11 -11 -11 -11 -11 -11 -11 -11 -11 -10 -10 -10 -10 -10 -10 -10 -9
-12 -13 -13 -13 -13 -13 -13 -13 -13 -13 -13 -13 -13 -13 -13 -13 -13 -13 -13 -13 -13 -13 -12 -12 -12 -12 -12 -12 -12 -11 -11 -11 -11 -11 -11 -11 -11 -11 -11 -10 -10 -10 -10 -10
-13 -13 -13 -13 -13 -13 -14 -14 -14 -14 -14 -14 -13 -13 -13 -13 -13 -13 -13 -13 -13 -13 -13 -12 -12 -12 -12 -12 -12 -12 -12 -12 -11 -11 -11 -11 -11 -11 -11 -11 -10 -10 -10 -10
Wind_Speed
3 3 2 5 7 7 4 2 1 2 3 5 9 9 10 10 11 11 12 12 11 11 10 10 9 8 7 5 4 4 3 2 1 1 1 2 3 3 3 3 4 4 4 4
3 2 2 6 9 7 5 4 3 4 3 5 7 8 9 10 11 12 13 13 12 12 11 11 10 9 8 7 5 3 2 2 2 0 1 2 2 3 3 3 3 3 3 4
3 5 2 3 5 5 3 4 3 3 5 8 10 11 10 10 10 11 12 13 13 12 11 10 10 9 8 7 6 4 2 2 2 1 1 1 2 2 3 3 3 3 3 3
2 3 1 2 2 4 3 3 5 5 7 8 9 10 6 6 9 11 12 12 12 11 11 10 9 9 8 7 5 4 3 3 3 1 0 1 1 2 2 2 3 3 3 3
1 1 2 3 4 4 3 4 6 7 10 10 10 7 4 7 10 10 11 11 11 10 10 10 9 9 8 7 5 4 4 4 3 2 0 1 1 1 1 2 2 2 2 3
2 0 2 4 7 7 2 3 7 9 9 10 10 6 7 11 13 12 12 11 10 10 9 9 9 8 7 7 5 5 4 4 4 3 1 1 1 0 0 2 2 2 1 2
1 1 4 5 8 5 2 5 8 8 8 8 6 5 9 12 12 11 11 11 11 9 8 8 8 7 7 7 6 6 5 4 3 3 2 1 0 0 1 2 2 2 1 1
1 1 4 5 4 2 3 6 7 7 7 8 8 9 10 11 12 12 12 12 11 10 9 8 8 7 7 7 7 6 5 4 4 3 2 1 1 0 1 2 3 2 2 1
3 4 3 2 1 2 3 5 6 6 8 8 9 10 11 11 10 11 11 11 10 9 9 8 8 7 7 8 7 5 4 4 3 3 2 2 1 0 1 1 2 2 2 1
3 4 4 4 3 5 5 5 6 6 7 7 8 10 10 10 10 10 10 10 9 9 9 9 9 8 7 7 6 4 4 4 3 2 2 2 1 1 0 1 1 1 1 1
4 5 6 4 4 5 6 6 7 7 6 7 7 9 9 9 10 10 10 9 8 8 8 9 9 8 8 7 5 4 4 3 3 2 2 2 2 2 1 1 1 1 1 1
5 5 4 6 5 5 6 7 7 7 8 8 7 8 9 9 9 9 9 9 8 9 9 8 8 8 8 7 5 4 4 3 2 2 2 2 2 3 4 3 3 2 1 0
5 4 5 6 5 4 5 6 6 6 7 8 8 7 8 8 8 9 9 9 9 9 8 8 8 8 8 7 6 5 4 3 2 2 2 2 2 2 2 4 5 4 4 3
4 3 4 4 5 6 6 6 6 6 6 6 7 7 7 8 8 9 9 9 8 8 8 7 7 8 8 7 6 5 4 4 3 2 2 2 1 1 1 1 2 3 4 4
4 3 5 6 5 5 5 5 6 7 7 7 7 7 8 8 9 9 9 9 8 8 8 7 8 8 8 7 6 6 4 3 3 2 2 2 2 1 1 1 1 2 3 3
5 4 4 4 6 6 6 6 6 7 7 7 7 8 8 8 8 8 8 8 7 8 8 8 8 8 8 7 6 5 4 5 4 3 2 2 2 2 1 1 1 2 2 2
4 4 5 6 6 6 6 6 6 7 7 6 7 8 8 7 8 8 8 8 7 7 7 8 8 9 8 6 5 4 4 4 5 4 2 2 2 2 2 1 1 2 2 2
4 5 5 5 6 6 7 6 6 6 6 6 7 7 7 7 8 9 9 9 8 7 7 8 8 8 7 6 5 4 3 3 3 3 2 2 2 2 1 1 2 2 2 3
4 4 5 5 5 5 5 6 6 6 6 6 6 6 6 7 7 8 8 8 8 8 9 9 11 9 7 7 6 3 3 3 3 3 3 3 3 2 2 2 2 2 2 2
4 4 5 5 5 4 5 5 5 5 5 5 6 6 7 7 7 7 7 6 6 6 8 9 8 7 7 6 7 3 3 3 3 3 2 2 2 2 2 2 2 2 2 2
5 5 5 5 5 5 5 5 5 5 6 5 5 6 7 7 7 6 6 7 7 8 8 10 7 6 6 6 6 3 3 3 3 2 2 2 2 2 2 2 2 2 2 3
4 4 5 5 5 5 5 4 4 5 5 5 6 6 6 7 7 6 5 5 7 11 8 6 5 7 9 7 3 3 3 3 3 2 2 2 2 2 2 2 2 2 2 2
4 4 5 5 5 5 5 5 4 5 5 6 6 6 6 6 5 6 7 6 6 11 9 6 9 11 11 6 3 3 3 3 3 3 3 3 2 2 2 3 3 3 3 3
4 4 4 4 4 4 5 5 5 5 5 5 5 6 5 5 5 4 5 10 12 12 7 9 13 12 10 4 3 3 3 3 3 3 3 3 2 3 3 3 3 3 3 3
4 3 3 4 4 4 5 6 5 5 5 5 5 5 4 4 4 6 6 7 11 11 7 9 12 11 7 4 4 4 4 4 4 3 3 3 3 3 3 3 3 3 3 3
3 3 4 4 4 4 4 4 4 5 5 6 6 5 5 4 5 5 5 6 7 9 7 5 6 7 5 5 4 4 4 5 5 4 4 4 4 4 3 3 4 4 3 4
3 3 3 3 3 3 3 4 4 5 5 5 6 6 5 5 5 5 6 5 6 6 5 5 5 5 5 5 5 5 4 4 4 4 4 4 4 4 4 4 4 4 4 4
Wind_Direction
267 296 345 5 1 9 25 14 269 303 317 337 344 341 345 353 356 0 2 2 1 359 354 352 351 351 352 355 359 3 10 5 293 221 184 170 170 166 163 165 173 179 177 177
296 319 23 28 10 6 8 3 345 346 336 340 337 346 353 356 358 358 355 353 352 353 351 348 345 343 343 342 345 351 355 346 347 5 146 158 171 168 161 165 165 165 175 181
293 311 3 7 358 2 9 14 5 339 318 335 341 344 342 346 353 351 347 346 345 342 339 338 337 336 336 332 336 345 347 347 355 2 116 148 161 159 169 175 164 168 179 178
309 9 299 247 351 355 349 15 15 349 340 341 333 321 323 345 351 345 343 341 336 334 333 333 332 333 333 336 342 347 353 350 350 343 67 100 131 161 164 163 166 172 178 182
38 336 286 314 347 354 316 317 5 348 340 339 336 332 340 358 352 340 333 329 328 328 327 328 331 333 338 341 342 346 345 342 331 320 239 150 145 165 164 156 155 166 174 174
82 78 274 297 319 319 280 303 354 349 339 338 344 344 323 337 338 333 332 332 331 332 333 334 334 338 342 339 338 331 329 329 327 323 296 206 198 201 155 151 152 152 154 172
93 223 273 304 323 353 72 297 326 334 333 335 330 301 304 318 324 328 329 332 334 333 334 333 333 338 339 337 329 323 330 334 335 332 321 312 43 8 148 141 136 137 141 162
19 268 280 331 16 46 275 307 322 323 326 323 316 313 315 321 326 330 332 334 336 336 334 336 338 339 338 334 328 332 335 336 334 334 332 350 46 45 129 143 143 144 138 117
210 228 271 307 277 297 312 314 317 318 319 320 319 319 322 325 326 327 329 330 332 333 332 334 337 339 335 330 329 332 336 336 332 338 342 345 353 60 112 134 151 159 158 170
271 274 295 297 307 327 324 313 312 314 316 321 318 319 321 323 324 325 325 327 330 334 334 333 336 336 330 327 331 332 332 332 340 353 359 2 0 15 117 156 158 171 179 187
270 288 312 302 316 320 325 326 326 325 323 321 319 319 319 318 319 321 322 325 329 333 331 329 333 335 337 338 338 337 338 339 346 356 356 6 15 11 355 323 221 210 217 207
253 266 267 286 302 315 317 319 320 323 325 326 322 317 320 319 321 322 323 325 329 331 330 331 336 338 341 340 341 340 342 344 347 350 358 10 27 23 23 20 24 22 15 296
254 277 267 277 296 310 306 308 312 313 311 315 319 316 318 319 322 324 326 330 330 329 330 333 338 341 342 343 343 343 341 340 340 348 358 4 9 19 17 20 29 35 34 26
275 291 290 297 301 305 305 308 312 312 311 313 316 320 322 322 324 328 330 328 326 329 333 336 339 341 340 342 346 349 350 348 350 353 357 357 353 358 1 14 11 6 15 24
287 279 274 292 302 311 317 321 323 320 319 321 323 324 325 325 325 326 327 329 331 336 339 340 341 339 339 344 348 351 353 353 355 358 4 2 357 5 13 16 15 357 357 8
305 298 287 298 307 314 321 323 320 318 320 319 323 324 322 321 321 324 330 336 336 337 337 337 336 335 339 345 348 349 352 357 358 360 4 3 4 12 9 8 5 354 343 336
310 311 310 311 309 309 310 310 309 311 316 317 319 321 324 327 329 333 336 334 328 325 331 334 333 334 339 344 345 342 343 349 354 359 3 357 355 355 351 347 341 335 324 326
272 280 287 288 293 299 306 311 311 312 313 311 317 323 328 331 329 328 330 332 334 336 338 337 336 338 342 344 343 341 343 347 353 357 356 356 352 351 350 344 341 337 334 338
303 301 305 307 303 298 302 307 310 312 313 317 321 321 321 322 323 324 328 335 339 337 337 335 338 344 341 339 342 341 344 345 350 351 349 345 350 358 353 343 339 337 334 337
315 317 316 315 318 312 306 308 311 314 315 318 319 321 323 323 323 325 328 328 324 318 319 327 334 336 334 333 339 344 344 344 344 341 341 340 341 341 341 338 337 336 335 331
308 312 314 314 314 313 309 310 313 314 316 318 316 314 314 317 321 325 328 326 325 325 328 333 338 331 329 333 339 345 343 338 333 330 328 325 325 328 332 333 330 327 325 326
300 304 306 308 310 311 312 312 310 310 315 317 314 313 317 321 325 323 316 307 317 329 334 329 326 329 336 339 344 343 335 330 326 323 321 318 315 314 317 319 317 317 317 317
297 299 302 303 303 305 313 316 312 311 312 314 314 314 313 312 315 318 319 322 323 328 333 327 328 333 339 345 346 341 336 330 324 317 312 309 305 302 300 302 304 306 306 306
301 304 304 305 309 314 316 316 315 312 305 304 305 306 309 314 314 302 296 316 327 327 329 327 332 335 341 350 341 333 326 320 314 309 306 305 302 297 293 294 297 298 296 296
302 301 305 313 313 308 307 312 316 315 315 314 314 315 310 301 300 309 312 316 323 327 326 330 336 340 343 335 331 326 321 315 311 312 309 303 299 295 293 292 290 291 290 288
300 299 295 289 289 295 306 313 316 318 321 320 320 317 314 311 305 307 311 316 319 328 331 328 330 334 332 329 325 322 319 318 321 321 314 307 301 296 292 291 290 288 287 287
307 306 308 310 311 310 310 310 311 314 316 313 311 314 318 319 318 318 318 320 323 325 324 324 326 325 322 321 320 319 317 314 312 308 305 301 297 292 290 289 289 289 288 288
Height
1496 1493 1492 1491 1489 1486 1486 1486 1485 1483 1483 1484 1482 1479 1476 1472 1467 1463 1460 1457 1455 1453 1451 1450 1448 1447 1447 1447 1448 1449 1450 1451 1452 1454 1455 1457 1460 1462 1464 1466 1469 1471 1473 1476
1496 1492 1491 1492 1492 1490 1489 1489 1489 1486 1486 1486 1483 1480 1476 1473 1469 1465 1462 1459 1457 1454 1452 1450 1448 1447 1446 1446 1446 1447 1448 1449 1450 1451 1452 1454 1456 1458 1460 1462 1465 1467 1469 1472
1498 1495 1493 1498 1498 1496 1495 1494 1493 1492 1492 1487 1483 1480 1477 1474 1471 1468 1465 1461 1458 1455 1453 1450 1448 1446 1445 1445 1445 1445 1446 1447 1448 1449 1450 1451 1453 1455 1457 1459 1461 1463 1466 1468
1501 1500 1506 1504 1499 1499 1497 1496 1495 1493 1491 1488 1485 1481 1477 1475 1472 1468 1465 1462 1458 1455 1452 1449 1447 1446 1444 1443 1443 1443 1444 1445 1445 1446 1447 1448 1450 1452 1454 1456 1458 1460 1462 1464
1506 1507 1506 1502 1500 1500 1499 1497 1496 1494 1490 1487 1484 1479 1476 1475 1472 1469 1466 1462 1459 1455 1452 1449 1447 1444 1443 1441 1441 1441 1442 1442 1443 1444 1444 1446 1447 1449 1451 1453 1455 1457 1459 1460
1509 1509 1508 1507 1501 1498 1499 1498 1496 1494 1491 1488 1485 1482 1478 1475 1472 1468 1464 1461 1457 1454 1451 1448 1445 1444 1442 1440 1439 1439 1439 1440 1441 1441 1442 1443 1444 1446 1448 1450 1451 1453 1455 1457
1514 1514 1510 1507 1502 1498 1504 1503 1497 1495 1493 1490 1487 1486 1481 1475 1471 1467 1463 1460 1456 1452 1449 1447 1444 1442 1440 1439 1438 1437 1438 1438 1438 1439 1440 1440 1442 1444 1445 1447 1449 1450 1452 1453
1516 1516 1514 1506 1503 1505 1505 1500 1497 1494 1492 1490 1486 1483 1479 1475 1470 1466 1462 1458 1454 1450 1447 1445 1443 1441 1438 1437 1436 1436 1436 1435 1436 1436 1437 1438 1439 1441 1442 1444 1445 1447 1448 1450
1516 1514 1508 1506 1505 1504 1502 1499 1497 1494 1491 1489 1485 1481 1477 1473 1469 1465 1461 1457 1454 1450 1447 1444 1442 1440 1437 1436 1435 1434 1434 1434 1434 1434 1435 1436 1437 1438 1439 1441 1442 1443 1445 1446
1513 1508 1506 1505 1503 1502 1500 1498 1495 1493 1490 1487 1484 1480 1476 1472 1468 1464 1460 1457 1453 1450 1446 1443 1441 1439 1437 1435 1434 1433 1432 1432 1432 1433 1433 1434 1435 1436 1437 1438 1439 1441 1442 1444
1512 1508 1505 1502 1502 1500 1498 1496 1493 1491 1488 1486 1482 1478 1475 1471 1467 1463 1460 1456 1453 1449 1445 1443 1440 1438 1436 1434 1433 1431 1431 1430 1431 1431 1432 1432 1433 1434 1435 1436 1438 1439 1440 1441
1511 1507 1506 1502 1500 1499 1496 1493 1491 1488 1485 1483 1481 1477 1473 1470 1466 1462 1458 1455 1452 1448 1445 1442 1439 1437 1435 1433 1432 1430 1429 1429 1429 1429 1430 1431 1431 1432 1433 1435 1436 1437 1438 1439
1506 1504 1503 1500 1499 1497 1494 1492 1489 1487 1484 1481 1478 1475 1472 1468 1464 1461 1458 1454 1451 1447 1444 1442 1439 1436 1434 1433 1431 1429 1428 1428 1428 1428 1428 1429 1430 1430 1431 1432 1433 1434 1435 1436
1504 1502 1499 1498 1496 1494 1492 1489 1487 1484 1482 1479 1476 1473 1470 1466 1463 1460 1456 1453 1450 1447 1444 1441 1438 1436 1434 1432 1430 1428 1427 1427 1427 1427 1427 1428 1429 1429 1430 1430 1431 1432 1433 1434
1501 1500 1498 1496 1494 1491 1489 1487 1484 1481 1478 1476 1474 1471 1468 1464 1461 1458 1455 1452 1449 1446 1443 1441 1438 1436 1434 1432 1430 1428 1427 1426 1426 1426 1426 1427 1427 1428 1428 1429 1429 1430 1430 1431
1498 1497 1495 1493 1491 1489 1486 1484 1481 1478 1476 1473 1471 1469 1466 1463 1460 1457 1454 1451 1448 1444 1442 1440 1438 1436 1433 1432 1430 1428 1427 1427 1426 1426 1426 1426 1426 1427 1427 1427 1428 1428 1429 1429
1496 1494 1492 1490 1488 1486 1484 1482 1479 1477 1474 1472 1469 1467 1464 1461 1458 1455 1452 1450 1447 1444 1442 1440 1437 1435 1433 1432 1430 1429 1428 1427 1427 1426 1426 1426 1426 1426 1426 1426 1426 1427 1427 1428
1495 1493 1491 1488 1486 1484 1481 1480 1477 1475 1472 1470 1467 1465 1462 1459 1456 1453 1451 1448 1446 1443 1441 1439 1437 1435 1433 1431 1430 1429 1428 1427 1426 1426 1425 1425 1425 1425 1425 1425 1425 1425 1425 1426
1492 1490 1488 1486 1484 1482 1479 1477 1475 1473 1470 1468 1465 1463 1460 1458 1455 1452 1449 1447 1444 1442 1440 1438 1436 1434 1433 1431 1430 1428 1427 1426 1426 1425 1425 1424 1424 1424 1424 1424 1424 1424 1424 1424
1490 1488 1486 1484 1482 1480 1477 1475 1473 1471 1468 1466 1463 1461 1458 1456 1454 1451 1448 1446 1444 1442 1440 1437 1435 1433 1432 1430 1429 1427 1426 1426 1425 1424 1424 1423 1423 1423 1423 1422 1422 1422 1422 1422
1487 1486 1484 1482 1480 1478 1476 1473 1471 1469 1467 1464 1462 1459 1457 1455 1452 1450 1447 1444 1443 1441 1439 1437 1434 1432 1431 1429 1428 1427 1425 1424 1424 1423 1422 1422 1422 1421 1421 1421 1420 1420 1420 1419
1485 1483 1481 1479 1477 1475 1474 1471 1469 1467 1465 1463 1461 1458 1456 1453 1451 1449 1446 1444 1442 1440 1437 1435 1433 1432 1430 1429 1427 1425 1424 1423 1422 1422 1421 1421 1420 1420 1419 1419 1418 1418 1417 1417
1483 1481 1479 1477 1475 1473 1471 1469 1467 1465 1463 1461 1459 1457 1454 1452 1450 1447 1445 1443 1441 1439 1436 1434 1432 1431 1429 1427 1425 1424 1423 1422 1421 1420 1419 1419 1418 1418 1417 1417 1416 1416 1415 1415
1480 1478 1477 1475 1473 1471 1469 1468 1466 1464 1462 1460 1458 1455 1453 1451 1448 1447 1444 1442 1440 1438 1435 1433 1431 1430 1428 1426 1424 1423 1421 1420 1419 1418 1417 1417 1416 1415 1415 1414 1414 1413 1413 1412
1478 1476 1474 1472 1471 1469 1467 1466 1464 1462 1460 1458 1456 1454 1452 1449 1447 1445 1443 1440 1438 1436 1434 1432 1430 1428 1426 1425 1423 1421 1420 1418 1417 1416 1415 1414 1414 1413 1412 1412 1411 1411 1410 1410
1475 1474 1472 1470 1469 1467 1466 1464 1462 1460 1458 1456 1454 1452 1450 1448 1446 1444 1441 1439 1437 1435 1433 1431 1429 1427 1425 1423 1422 1420 1418 1417 1416 1415 1414 1412 1412 1411 1410 1409 1409 1408 1408 1407
1473 1472 1470 1468 1467 1465 1464 1462 1460 1458 1456 1454 1452 1450 1448 1446 1444 1442 1439 1437 1435 1433 1431 1429 1427 1425 1424 1422 1420 1419 1417 1416 1414 1413 1412 1411 1410 1409 1408 1407 1406 1406 1405 1404